Location: Lesignano de� Bagni
(44.6500°N, 10.3000°E)
Time: 15:09:48
(UTC+00:00)

Cosmos 1727 Rocket - Pass Details

Date: 03 March 2021
Orbit: 961 x 996 km, 82.9° (Epoch: 19 April)

Event Time Altitude Azimuth Distance (km) Brightness Sun altitude
Rises 18:42:42 0° 358° (N) 3,658 7.1 -17.4°
Reaches altitude 10° 18:45:25 10° 6° (N) 2,708 6.4 -17.8°
Maximum altitude 18:51:09 38° 74° (ENE) 1,430 4.4 -18.8°
Enters shadow 18:52:54 32° 109° (ESE) 1,596 4.6 -19.2°
